| time (UTC) | temp F | wind direction | speed MPH | gust MPH | rain 1hr in | rain 24hr in | rain mn in | humidity % | barometer mb |
| 20260905114536 | 71 | 213 | 0.0 | 0.0 | 0.00 | 0.00 | 0.00 | 61 | 1013.1 |
| 20260905113036 | 71 | 213 | 0.0 | 0.0 | 0.00 | 0.00 | 0.00 | 61 | 1013.0 |
| 20260905111554 | 72 | 213 | 0.0 | 0.0 | 0.00 | 0.00 | 0.00 | 61 | 1013.0 |
| 20260905110135 | 72 | 213 | 0.0 | 0.0 | 0.00 | 0.00 | 0.00 | 61 | 1012.7 |
| 20260905104532 | 72 | 213 | 0.0 | 0.0 | 0.00 | 0.00 | 0.00 | 61 | 1012.8 |
| 20260905103031 | 72 | 213 | 0.0 | 0.0 | 0.00 | 0.00 | 0.00 | 62 | 1012.8 |
| 20260905101531 | 72 | 213 | 0.0 | 0.0 | 0.00 | 0.00 | 0.00 | 62 | 1012.6 |
| 20260905100031 | 72 | 213 | 0.0 | 0.0 | 0.00 | 0.00 | 0.00 | 62 | 1012.7 |
| 20260905094529 | 72 | 213 | 0.0 | 0.0 | 0.00 | 0.00 | 0.00 | 62 | 1012.8 |
| 20260905093028 | 73 | 213 | 0.0 | 0.0 | 0.00 | 0.00 | 0.00 | 62 | 1012.7 |
| 20260905091526 | 73 | 213 | 0.0 | 0.0 | 0.00 | 0.00 | 0.00 | 62 | 1012.9 |
| 20260905090025 | 73 | 213 | 0.0 | 0.0 | 0.00 | 0.00 | 0.00 | 62 | 1012.8 |
| 20260905084527 | 74 | 213 | 0.0 | 0.0 | 0.00 | 0.00 | 0.00 | 63 | 1012.7 |
| 20260905083022 | 74 | 213 | 0.0 | 0.0 | 0.00 | 0.00 | 0.00 | 63 | 1012.5 |
| 20260905081524 | 74 | 213 | 0.0 | 0.0 | 0.00 | 0.00 | 0.00 | 63 | 1012.6 |
| 20260905080020 | 74 | 213 | 0.0 | 0.0 | 0.00 | 0.00 | 0.00 | 63 | 1012.5 |
| 20260905074519 | 75 | 213 | 0.0 | 0.0 | 0.00 | 0.00 | 0.00 | 63 | 1012.7 |
| 20260905073022 | 75 | 213 | 0.0 | 0.0 | 0.00 | 0.00 | 0.00 | 63 | 1012.8 |
| 20260905071533 | 75 | 213 | 0.0 | 0.0 | 0.00 | 0.00 | 0.00 | 63 | 1012.8 |
| 20260905070014 | 75 | 213 | 0.0 | 0.0 | 0.00 | 0.00 | 0.00 | 63 | 1012.7 |
| 20260905064513 | 76 | 213 | 0.0 | 0.0 | 0.00 | 0.00 | 0.00 | 63 | 1013.0 |
| 20260905063012 | 76 | 213 | 0.0 | 0.0 | 0.00 | 0.00 | 0.00 | 62 | 1013.0 |
| 20260905061511 | 76 | 213 | 0.0 | 0.0 | 0.00 | 0.00 | 0.00 | 63 | 1012.9 |
| 20260905060016 | 77 | 213 | 0.0 | 1.0 | 0.00 | 0.00 | 0.00 | 63 | 1012.9 |
| 20260905054523 | 77 | 213 | 0.0 | 0.0 | 0.00 | 0.00 | 0.00 | 62 | 1012.7 |
| 20260905053004 | 78 | 213 | 0.0 | 0.0 | 0.00 | 0.00 | 0.00 | 62 | 1012.6 |
| 20260905051504 | 78 | 213 | 0.0 | 0.0 | 0.00 | 0.00 | 0.00 | 61 | 1012.7 |
| 20260905050001 | 78 | 213 | 0.0 | 0.0 | 0.00 | 0.00 | 0.00 | 61 | 1012.7 |
| 20260905044602 | 79 | 213 | 0.0 | 0.0 | 0.00 | 0.00 | 0.00 | 60 | 1012.7 |
| 20260905043100 | 79 | 213 | 0.0 | 0.0 | 0.00 | 0.00 | 0.00 | 60 | 1012.7 |
| 20260905041559 | 79 | 213 | 0.0 | 0.0 | 0.00 | 0.00 | 0.00 | 59 | 1012.7 |
| 20260905040103 | 79 | 213 | 0.0 | 0.0 | 0.00 | 0.00 | 0.00 | 58 | 1012.8 |
| 20260905034559 | 80 | 213 | 0.0 | 0.0 | 0.00 | 0.00 | 0.00 | 58 | 1012.6 |
| 20260905033103 | 80 | 213 | 0.0 | 0.0 | 0.00 | 0.00 | 0.00 | 58 | 1012.6 |
| 20260905031558 | 81 | 213 | 0.0 | 0.0 | 0.00 | 0.00 | 0.00 | 57 | 1012.5 |
| 20260905030100 | 81 | 213 | 0.0 | 0.0 | 0.00 | 0.00 | 0.00 | 57 | 1012.5 |
| 20260905024621 | 82 | 213 | 0.0 | 0.0 | 0.00 | 0.00 | 0.00 | 56 | 1012.4 |
| 20260905023110 | 82 | 213 | 0.0 | 0.0 | 0.00 | 0.00 | 0.00 | 56 | 1012.3 |
| 20260905021600 | 83 | 213 | 0.0 | 0.0 | 0.00 | 0.00 | 0.00 | 55 | 1012.2 |
| 20260905020106 | 83 | 213 | 0.0 | 0.0 | 0.00 | 0.00 | 0.00 | 53 | 1011.8 |
| 20260905014559 | 84 | 213 | 0.0 | 0.0 | 0.00 | 0.00 | 0.00 | 52 | 1011.6 |
| 20260905013055 | 85 | 213 | 0.0 | 0.0 | 0.00 | 0.00 | 0.00 | 50 | 1011.5 |
| 20260905011602 | 86 | 213 | 0.0 | 0.0 | 0.00 | 0.00 | 0.00 | 48 | 1011.3 |
| 20260905010054 | 88 | 213 | 0.0 | 1.0 | 0.00 | 0.00 | 0.00 | 46 | 1011.3 |
| 20260905004553 | 89 | 179 | 0.0 | 0.0 | 0.00 | 0.00 | 0.00 | 44 | 1011.3 |
| 20260905003053 | 90 | 180 | 0.0 | 1.0 | 0.00 | 0.00 | 0.00 | 42 | 1011.3 |
| 20260905001553 | 92 | 180 | 0.0 | 2.0 | 0.00 | 0.00 | 0.00 | 39 | 1011.3 |
| 20260905000053 | 93 | 180 | 0.0 | 1.0 | 0.00 | 0.00 | 0.00 | 39 | 1011.3 |
| 20260904234556 | 94 | 180 | 0.0 | 2.0 | 0.00 | 0.00 | 0.00 | 37 | 1011.3 |
| 20260904233053 | 94 | 186 | 0.0 | 3.0 | 0.00 | 0.00 | 0.00 | 37 | 1011.4 |
| 20260904231550 | 95 | 194 | 0.0 | 2.0 | 0.00 | 0.00 | 0.00 | 36 | 1011.5 |
| 20260904230050 | 95 | 121 | 1.0 | 7.0 | 0.00 | 0.00 | 0.00 | 36 | 1011.5 |
| 20260904224602 | 95 | 110 | 1.0 | 6.0 | 0.00 | 0.00 | 0.00 | 36 | 1011.5 |
| 20260904223050 | 95 | 87 | 0.0 | 3.0 | 0.00 | 0.00 | 0.00 | 37 | 1011.4 |
| 20260904221554 | 95 | 73 | 2.0 | 8.0 | 0.00 | 0.00 | 0.00 | 35 | 1011.6 |
| 20260904220048 | 96 | 140 | 0.0 | 4.0 | 0.00 | 0.00 | 0.00 | 36 | 1011.5 |
| 20260904214550 | 96 | 119 | 1.0 | 4.0 | 0.00 | 0.00 | 0.00 | 36 | 1011.8 |
| 20260904213047 | 96 | 113 | 1.0 | 6.0 | 0.00 | 0.00 | 0.00 | 36 | 1012.0 |
| 20260904211547 | 97 | 121 | 0.0 | 4.0 | 0.00 | 0.00 | 0.00 | 34 | 1012.0 |
| 20260904210053 | 96 | 113 | 3.0 | 8.0 | 0.00 | 0.00 | 0.00 | 34 | 1012.0 |
| 20260904204545 | 96 | 150 | 1.0 | 3.0 | 0.00 | 0.00 | 0.00 | 35 | 1012.0 |
| 20260904203045 | 97 | 280 | 1.0 | 6.0 | 0.00 | 0.00 | 0.00 | 36 | 1012.3 |
| 20260904201557 | 96 | 121 | 1.0 | 6.0 | 0.00 | 0.00 | 0.00 | 34 | 1012.3 |
| 20260904200044 | 96 | 131 | 0.0 | 3.0 | 0.00 | 0.00 | 0.00 | 34 | 1012.5 |
| 20260904194555 | 96 | 229 | 0.0 | 7.0 | 0.00 | 0.00 | 0.00 | 37 | 1012.7 |
| 20260904193041 | 96 | 180 | 0.0 | 3.0 | 0.00 | 0.00 | 0.00 | 36 | 1012.7 |
| 20260904191539 | 95 | 105 | 2.0 | 5.0 | 0.00 | 0.00 | 0.00 | 36 | 1012.9 |
| 20260904190039 | 95 | 123 | 2.0 | 9.0 | 0.00 | 0.00 | 0.00 | 35 | 1013.0 |
| 20260904184536 | 94 | 117 | 2.0 | 6.0 | 0.00 | 0.00 | 0.00 | 36 | 1013.1 |
| 20260904183035 | 94 | 164 | 1.0 | 5.0 | 0.00 | 0.00 | 0.00 | 41 | 1013.2 |
| 20260904181534 | 94 | 119 | 1.0 | 3.0 | 0.00 | 0.00 | 0.00 | 38 | 1013.4 |
| 20260904180035 | 93 | 276 | 2.0 | 7.0 | 0.00 | 0.00 | 0.00 | 38 | 1013.5 |
| 20260904174532 | 93 | 117 | 1.0 | 9.0 | 0.00 | 0.00 | 0.00 | 38 | 1013.5 |
| 20260904173030 | 92 | 97 | 0.0 | 4.0 | 0.00 | 0.00 | 0.00 | 43 | 1013.5 |
| 20260904171531 | 91 | 118 | 1.0 | 3.0 | 0.00 | 0.00 | 0.00 | 42 | 1014.0 |
| 20260904170027 | 91 | 121 | 1.0 | 5.0 | 0.00 | 0.00 | 0.00 | 45 | 1014.1 |
| 20260904164522 | 90 | 252 | 2.0 | 6.0 | 0.00 | 0.00 | 0.00 | 45 | 1014.1 |
| 20260904163121 | 89 | 261 | 1.0 | 7.0 | 0.00 | 0.00 | 0.00 | 46 | 1014.3 |
| 20260904161518 | 89 | 17 | 1.0 | 4.0 | 0.00 | 0.00 | 0.00 | 46 | 1014.3 |
| 20260904160016 | 88 | 184 | 1.0 | 6.0 | 0.00 | 0.00 | 0.00 | 48 | 1014.3 |
| 20260904154513 | 87 | 242 | 2.0 | 8.0 | 0.00 | 0.00 | 0.00 | 48 | 1014.3 |
| 20260904153019 | 87 | 240 | 1.0 | 6.0 | 0.00 | 0.00 | 0.00 | 50 | 1014.3 |
| 20260904151511 | 86 | 155 | 0.0 | 3.0 | 0.00 | 0.00 | 0.00 | 52 | 1014.3 |
| 20260904150014 | 85 | 196 | 2.0 | 6.0 | 0.00 | 0.00 | 0.00 | 52 | 1014.4 |
| 20260904144601 | 83 | 270 | 2.0 | 7.0 | 0.00 | 0.00 | 0.00 | 55 | 1014.2 |
| 20260904143058 | 82 | 150 | 0.0 | 3.0 | 0.00 | 0.00 | 0.00 | 56 | 1014.3 |
| 20260904141604 | 80 | 174 | 0.0 | 2.0 | 0.00 | 0.00 | 0.00 | 56 | 1014.3 |
| 20260904140049 | 79 | 130 | 0.0 | 3.0 | 0.00 | 0.00 | 0.00 | 57 | 1014.3 |
| 20260904134554 | 77 | 136 | 0.0 | 4.0 | 0.00 | 0.00 | 0.00 | 60 | 1014.2 |
| 20260904133047 | 76 | 117 | 0.0 | 2.0 | 0.00 | 0.00 | 0.00 | 61 | 1014.1 |
| 20260904131545 | 74 | 117 | 0.0 | 1.0 | 0.00 | 0.00 | 0.00 | 62 | 1014.1 |
| 20260904130045 | 73 | 117 | 0.0 | 1.0 | 0.00 | 0.00 | 0.00 | 63 | 1014.0 |
| 20260904124545 | 73 | 117 | 0.0 | 0.0 | 0.00 | 0.00 | 0.00 | 63 | 1013.8 |
| 20260904123042 | 73 | 117 | 0.0 | 0.0 | 0.00 | 0.00 | 0.00 | 64 | 1013.8 |
| 20260904121540 | 73 | 117 | 0.0 | 0.0 | 0.00 | 0.00 | 0.00 | 63 | 1013.6 |
| 20260904120039 | 73 | 117 | 0.0 | 0.0 | 0.00 | 0.00 | 0.00 | 63 | 1013.4 |